WBANNO,USDM_WEEK,LONGITUDE,LATITUDE,SMVWC_5_CM_MEAN,SMANOM_5_CM_MEAN,SMPERC_5_CM_30COUNTS,SMPERC_5_CM_70COUNTS,SMVWC_10_CM_MEAN,SMANOM_10_CM_MEAN,SMPERC_10_CM_30COUNTS,SMPERC_10_CM_70COUNTS,SMVWC_20_CM_MEAN,SMANOM_20_CM_MEAN,SMPERC_20_CM_30COUNTS,SMPERC_20_CM_70COUNTS,SMVWC_50_CM_MEAN,SMANOM_50_CM_MEAN,SMPERC_50_CM_30COUNTS,SMPERC_50_CM_70COUNTS,SMVWC_100_CM_MEAN,SMANOM_100_CM_MEAN,SMPERC_100_CM_30COUNTS,SMPERC_100_CM_70COUNTS,SMVWC_TOP_CM_MEAN,SMANOM_TOP_CM_MEAN,SMPERC_TOP_CM_30COUNTS,SMPERC_TOP_CM_70COUNTS,SMVWC_COLUMN_CM_MEAN,SMANOM_COLUMN_CM_MEAN,SMPERC_COLUMN_CM_30COUNTS,SMPERC_COLUMN_CM_70COUNTS
63831,20090509,-89.07,32.34,,,,,,,,,,,,,,,,,,,,,,,,,,,,
63831,20090510,-89.07,32.34,,,,,,,,,,,,,,,,,,,,,,,,,,,,
63831,20090511,-89.07,32.34,,,,,,,,,,,,,,,,,,,,,,,,,,,,
63831,20090512,-89.07,32.34,,,,,,,,,,,,,,,,,,,,,,,,,,,,
63831,20090513,-89.07,32.34,,,,,,,,,,,,,,,,,,,,,,,,,,,,
63831,20090514,-89.07,32.34,,,,,,,,,,,,,,,,,,,,,,,,,,,,
63831,20090515,-89.07,32.34,0.26,0.36,0,0.679,0.278,0.67,0,0.679,0.344,0.71,0,0.679,0.39,-0.3,0.538,0.365,0.464,-0.78,0.833,0,0.269,0.5,0,0.679,0.347,0.25,0.321,0.577
63831,20090516,-89.07,32.34,0.26,0.39,0,0.708,0.28,0.72,0,0.774,0.346,0.77,0,0.774,0.39,-0.29,0.571,0.339,0.466,-0.74,0.732,0,0.27,0.54,0,0.774,0.349,0.31,0.226,0.536
63831,20090517,-89.07,32.34,0.263,0.44,0,0.732,0.284,0.79,0,0.917,0.351,0.87,0,0.917,0.395,-0.19,0.571,0.339,0.47,-0.67,0.595,0,0.274,0.6,0,0.917,0.353,0.44,0.083,0.536
63831,20090518,-89.07,32.34,0.265,0.48,0,0.815,0.288,0.85,0,1,0.352,0.9,0,1,0.389,-0.25,0.631,0.28,0.472,-0.62,0.47,0,0.276,0.66,0,1,0.353,0.48,0,0.619
63831,20090519,-89.07,32.34,0.262,0.45,0,0.815,0.286,0.84,0,1,0.349,0.86,0,1,0.37,-0.51,0.774,0.137,0.473,-0.59,0.357,0,0.274,0.64,0,1,0.348,0.38,0,0.536
63831,20090520,-89.07,32.34,0.256,0.41,0,0.792,0.282,0.8,0,1,0.346,0.82,0,1,0.352,-0.74,0.917,0.006,0.474,-0.55,0.238,0,0.269,0.61,0,1,0.342,0.28,0,0.423
63831,20090521,-89.07,32.34,0.25,0.36,0,0.661,0.277,0.76,0,1,0.343,0.79,0,1,0.343,-0.85,1,0,0.475,-0.52,0.119,0,0.264,0.56,0,0.964,0.338,0.2,0,0.28
63831,20090522,-89.07,32.34,0.243,0.31,0,0.518,0.272,0.7,0,1,0.341,0.75,0,0.994,0.34,-0.86,1,0,0.475,-0.5,0.089,0,0.258,0.5,0,0.821,0.334,0.15,0,0.232
63831,20090523,-89.07,32.34,0.242,0.32,0,0.524,0.27,0.69,0,1,0.34,0.71,0,0.994,0.338,-0.87,1,0,0.475,-0.49,0.06,0,0.256,0.5,0,0.774,0.333,0.14,0,0.28
63831,20090524,-89.07,32.34,0.251,0.41,0,0.643,0.274,0.75,0,1,0.344,0.76,0,0.994,0.35,-0.71,0.911,0.083,0.476,-0.48,0.065,0,0.262,0.57,0,0.774,0.339,0.28,0,0.423
63831,20090525,-89.07,32.34,0.253,0.44,0,0.643,0.275,0.77,0,1,0.346,0.78,0,0.994,0.37,-0.47,0.768,0.226,0.477,-0.46,0.048,0,0.264,0.59,0,0.774,0.344,0.4,0,0.423
63831,20090526,-89.07,32.34,0.26,0.51,0,0.643,0.277,0.8,0,1,0.351,0.83,0,0.994,0.392,-0.21,0.625,0.369,0.478,-0.44,0.03,0,0.269,0.64,0,0.774,0.352,0.55,0,0.506
63831,20090527,-89.07,32.34,0.266,0.58,0,0.667,0.281,0.84,0,1,0.353,0.86,0,0.994,0.407,-0.03,0.482,0.47,0.479,-0.42,0.024,0,0.274,0.69,0,0.774,0.357,0.67,0,0.617
63831,20090528,-89.07,32.34,0.274,0.65,0,0.798,0.286,0.89,0,1,0.355,0.88,0,0.994,0.413,0.04,0.411,0.47,0.481,-0.41,0.018,0,0.28,0.76,0,0.81,0.362,0.77,0,0.758
63831,20090529,-89.07,32.34,0.281,0.71,0,0.94,0.291,0.95,0,1,0.358,0.9,0,1,0.416,0.09,0.411,0.47,0.481,-0.4,0.019,0,0.286,0.82,0,0.952,0.365,0.86,0,0.9
63831,20090530,-89.07,32.34,0.282,0.72,0,0.952,0.293,0.97,0,1,0.359,0.91,0,1,0.418,0.12,0.411,0.47,0.483,-0.38,0.02,0,0.288,0.83,0,1,0.367,0.94,0,1
63831,20090531,-89.07,32.34,0.273,0.63,0,0.814,0.288,0.9,0,1,0.354,0.84,0,1,0.406,0,0.497,0.389,0.483,-0.37,0.014,0,0.28,0.75,0,0.922,0.361,0.85,0,1
63831,20090601,-89.07,32.34,0.262,0.53,0,0.671,0.28,0.8,0,0.91,0.351,0.79,0,1,0.387,-0.21,0.641,0.246,0.483,-0.37,0.023,0,0.271,0.66,0,0.778,0.352,0.73,0,0.946
63831,20090602,-89.07,32.34,0.247,0.39,0,0.527,0.269,0.68,0,0.766,0.344,0.7,0,1,0.365,-0.45,0.784,0.102,0.482,-0.36,0.037,0,0.258,0.53,0,0.635,0.342,0.58,0,0.925
63831,20090603,-89.07,32.34,0.232,0.26,0,0.383,0.257,0.55,0,0.623,0.341,0.65,0,1,0.351,-0.6,0.928,0,0.481,-0.37,0.048,0,0.245,0.39,0,0.491,0.332,0.46,0,0.905
63831,20090604,-89.07,32.34,0.217,0.13,0,0.24,0.244,0.4,0,0.479,0.337,0.6,0,1,0.346,-0.64,1,0,0.48,-0.37,0.065,0,0.231,0.26,0,0.347,0.325,0.38,0,0.871
63831,20090605,-89.07,32.34,0.206,0.05,0,0.096,0.234,0.29,0,0.335,0.334,0.55,0,1,0.343,-0.65,1,0,0.479,-0.37,0.07,0,0.22,0.16,0,0.204,0.319,0.31,0,0.814
63831,20090606,-89.07,32.34,0.199,0,0,0,0.228,0.24,0,0.198,0.332,0.52,0,1,0.342,-0.66,1,0,0.477,-0.42,0.111,0,0.213,0.11,0,0.06,0.315,0.23,0,0.704
63831,20090607,-89.07,32.34,0.194,-0.03,0,0,0.222,0.18,0,0.06,0.329,0.49,0,1,0.34,-0.67,1,0,0.476,-0.45,0.167,0,0.208,0.07,0,0,0.312,0.15,0,0.333
63831,20090608,-89.07,32.34,0.188,-0.06,0,0,0.217,0.14,0,0.006,0.328,0.46,0,0.994,0.339,-0.68,1,0,0.477,-0.66,1,0,0.203,0.04,0,0,0.31,0.06,0,0
63831,20090609,-89.07,32.34,0.183,-0.08,0,0,0.213,0.1,0,0.006,0.326,0.43,0,0.952,0.338,-0.68,1,0,0.476,,,,0.198,0.01,0,0,0.307,,,
63831,20090610,-89.07,32.34,0.178,-0.1,0,0,0.208,0.06,0,0.006,0.324,0.4,0,0.839,0.337,-0.69,1,0,0.477,,,,0.193,-0.02,0,0,0.305,,,
63831,20090611,-89.07,32.34,0.173,-0.12,0.054,0,0.204,0.03,0,0.006,0.322,0.37,0,0.72,0.336,-0.69,1,0,0.476,,,,0.189,-0.04,0,0,0.302,,,
63831,20090612,-89.07,32.34,0.163,-0.17,0.196,0,0.197,-0.03,0,0.006,0.32,0.34,0,0.577,0.336,-0.69,1,0,0.477,,,,0.18,-0.1,0.071,0,0.299,,,
63831,20090613,-89.07,32.34,0.149,-0.26,0.339,0,0.186,-0.13,0.089,0,0.317,0.31,0,0.435,0.335,-0.69,1,0,0.478,,,,0.168,-0.2,0.214,0,0.293,,,
63831,20090614,-89.07,32.34,0.135,-0.35,0.482,0,0.175,-0.23,0.232,0,0.314,0.26,0,0.292,0.335,-0.68,1,0,0.478,,,,0.155,-0.29,0.357,0,0.287,,,
63831,20090615,-89.07,32.34,0.122,-0.44,0.625,0,0.164,-0.33,0.375,0,0.309,0.22,0,0.155,0.335,-0.67,1,0,0.479,,,,0.143,-0.38,0.5,0,0.282,,,
63831,20090616,-89.07,32.34,0.109,-0.51,0.768,0,0.153,-0.42,0.518,0,0.304,0.17,0,0.054,0.334,-0.67,1,0,0.48,,,,0.131,-0.46,0.643,0,0.276,,,
63831,20090617,-89.07,32.34,0.097,-0.59,0.911,0,0.143,-0.51,0.661,0,0.298,0.12,0,0.024,0.333,-0.67,1,0,0.481,,,,0.12,-0.54,0.786,0,0.27,,,
63831,20090618,-89.07,32.34,0.085,-0.65,1,0,0.132,-0.6,0.804,0,0.292,0.06,0,0,0.332,-0.68,1,0,0.482,,,,0.109,-0.62,0.929,0,0.265,,,
63831,20090619,-89.07,32.34,0.076,-0.7,1,0,0.122,-0.68,0.946,0,0.284,0,0,0,0.329,-0.69,1,0,0.483,,,,0.099,-0.68,1,0,0.259,,,
63831,20090620,-89.07,32.34,0.068,-0.73,1,0,0.112,-0.75,1,0,0.277,-0.06,0,0,0.327,-0.7,1,0,0.484,,,,0.09,-0.73,1,0,0.254,,,
63831,20090621,-89.07,32.34,0.061,-0.76,1,0,0.103,-0.82,1,0,0.269,-0.12,0,0,0.323,-0.72,1,0,0.485,,,,0.082,-0.78,1,0,0.248,,,
63831,20090622,-89.07,32.34,0.056,-0.78,1,0,0.095,-0.87,1,0,0.26,-0.19,0,0,0.32,-0.74,1,0,0.485,,,,0.075,-0.81,1,0,0.243,,,
63831,20090623,-89.07,32.34,0.052,-0.79,1,0,0.087,-0.91,1,0,0.252,-0.25,0,0,0.316,-0.76,1,0,0.486,,,,0.07,-0.84,1,0,0.239,,,
63831,20090624,-89.07,32.34,0.049,-0.79,1,0,0.081,-0.95,1,0,0.244,-0.3,0,0,0.312,-0.78,1,0,0.486,,,,0.065,-0.86,1,0,0.234,,,
63831,20090625,-89.07,32.34,0.047,-0.79,1,0,0.075,-0.97,1,0,0.237,-0.35,0.006,0,0.307,-0.81,1,0,0.485,,,,0.061,-0.87,1,0,0.23,,,
63831,20090626,-89.07,32.34,0.045,-0.79,1,0,0.071,-0.98,1,0,0.23,-0.39,0.012,0,0.303,-0.83,1,0,0.484,,,,0.058,-0.88,1,0,0.227,,,
63831,20090627,-89.07,32.34,0.043,-0.8,1,0,0.067,-1,1,0,0.224,-0.42,0.036,0,0.298,-0.86,1,0,0.482,,,,0.055,-0.89,1,0,0.223,,,
63831,20090628,-89.07,32.34,0.042,-0.8,1,0,0.065,-1.01,1,0,0.219,-0.45,0.119,0,0.294,-0.89,1,0,0.479,,,,0.053,-0.9,1,0,0.22,,,
63831,20090629,-89.07,32.34,0.051,-0.74,0.917,0,0.069,-0.97,0.935,0,0.217,-0.46,0.173,0,0.289,-0.91,1,0,0.475,,,,0.06,-0.85,0.917,0,0.22,,,
63831,20090630,-89.07,32.34,0.063,-0.65,0.774,0,0.078,-0.89,0.869,0,0.216,-0.45,0.173,0,0.284,-0.93,1,0,0.47,,,,0.07,-0.77,0.774,0,0.222,,,
63831,20090701,-89.07,32.34,0.071,-0.6,0.714,0,0.085,-0.84,0.869,0,0.217,-0.44,0.173,0,0.28,-0.95,1,0,0.466,,,,0.078,-0.72,0.774,0,0.224,,,
63831,20090702,-89.07,32.34,0.077,-0.56,0.714,0,0.089,-0.8,0.869,0,0.218,-0.44,0.167,0,0.277,-0.96,1,0,0.46,,,,0.083,-0.68,0.774,0,0.224,,,
63831,20090703,-89.07,32.34,0.079,-0.55,0.714,0,0.092,-0.78,0.869,0,0.218,-0.45,0.28,0,0.275,-0.96,1,0,0.453,,,,0.086,-0.66,0.774,0,0.224,,,
63831,20090704,-89.07,32.34,0.081,-0.54,0.714,0,0.094,-0.76,0.869,0,0.219,-0.46,0.399,0,0.274,-0.96,1,0,0.445,,,,0.087,-0.65,0.774,0,0.222,,,
63831,20090705,-89.07,32.34,0.082,-0.53,0.714,0,0.094,-0.76,0.869,0,0.219,-0.48,0.458,0,0.273,-0.96,1,0,0.436,,,,0.088,-0.65,0.774,0,0.221,,,
63831,20090706,-89.07,32.34,0.074,-0.59,0.786,0,0.09,-0.8,0.929,0,0.218,-0.52,0.548,0,0.272,-0.95,1,0,0.427,,,,0.082,-0.7,0.845,0,0.216,,,
63831,20090707,-89.07,32.34,0.081,-0.55,0.786,0,0.098,-0.73,0.851,0,0.22,-0.53,0.56,0,0.272,-0.93,1,0,0.418,,,,0.09,-0.65,0.845,0,0.218,,,
63831,20090708,-89.07,32.34,0.091,-0.51,0.702,0,0.108,-0.66,0.708,0,0.223,-0.53,0.56,0,0.272,-0.92,1,0,0.41,,,,0.099,-0.6,0.702,0,0.221,,,
63831,20090709,-89.07,32.34,0.1,-0.46,0.56,0,0.118,-0.6,0.565,0,0.226,-0.53,0.56,0,0.272,-0.92,1,0,0.404,,,,0.109,-0.54,0.56,0,0.224,,,
63831,20090710,-89.07,32.34,0.109,-0.43,0.536,0,0.127,-0.53,0.512,0,0.229,-0.51,0.44,0,0.271,-0.92,1,0,0.4,,,,0.118,-0.49,0.506,0,0.227,,,
63831,20090711,-89.07,32.34,0.116,-0.4,0.536,0,0.136,-0.48,0.512,0,0.232,-0.5,0.387,0,0.271,-0.92,1,0,0.397,,,,0.126,-0.45,0.506,0,0.231,,,
63831,20090712,-89.07,32.34,0.122,-0.39,0.536,0,0.143,-0.45,0.512,0,0.236,-0.48,0.381,0,0.271,-0.93,1,0,0.396,,,,0.133,-0.43,0.506,0,0.234,,,
63831,20090713,-89.07,32.34,0.133,-0.35,0.458,0,0.153,-0.39,0.518,0,0.241,-0.44,0.31,0,0.272,-0.94,1,0,0.397,,,,0.143,-0.37,0.435,0,0.239,,,
63831,20090714,-89.07,32.34,0.134,-0.36,0.458,0,0.155,-0.38,0.548,0,0.243,-0.43,0.298,0,0.273,-0.96,1,0,0.399,,,,0.144,-0.37,0.44,0,0.241,,,
63831,20090715,-89.07,32.34,0.136,-0.36,0.458,0,0.159,-0.36,0.548,0,0.246,-0.41,0.298,0,0.273,-0.98,1,0,0.4,,,,0.148,-0.35,0.44,0,0.243,,,
63831,20090716,-89.07,32.34,0.139,-0.35,0.458,0,0.163,-0.34,0.548,0,0.249,-0.38,0.298,0,0.274,-1,1,0,0.4,,,,0.151,-0.34,0.44,0,0.245,,,
63831,20090717,-89.07,32.34,0.143,-0.34,0.411,0,0.166,-0.31,0.458,0,0.252,-0.36,0.298,0,0.274,-1.02,1,0,0.4,,,,0.154,-0.32,0.357,0,0.247,,,
63831,20090718,-89.07,32.34,0.147,-0.33,0.411,0,0.17,-0.29,0.423,0,0.254,-0.34,0.208,0,0.274,-1.04,1,0,0.401,,,,0.158,-0.31,0.357,0,0.249,,,
63831,20090719,-89.07,32.34,0.15,-0.32,0.411,0,0.174,-0.27,0.423,0,0.257,-0.32,0.071,0,0.274,-1.07,1,0,0.401,,,,0.162,-0.3,0.357,0,0.251,,,
63831,20090720,-89.07,32.34,0.145,-0.38,0.5,0,0.172,-0.3,0.423,0,0.258,-0.32,0.101,0,0.274,-1.1,1,0,0.4,,,,0.159,-0.34,0.44,0,0.25,,,
63831,20090721,-89.07,32.34,0.129,-0.52,0.643,0,0.158,-0.44,0.536,0,0.255,-0.36,0.244,0,0.273,-1.14,1,0,0.397,,,,0.144,-0.49,0.577,0,0.243,,,
63831,20090722,-89.07,32.34,0.112,-0.67,0.786,0,0.142,-0.61,0.679,0,0.251,-0.41,0.387,0,0.273,-1.17,1,0,0.395,,,,0.127,-0.64,0.72,0,0.235,,,
63831,20090723,-89.07,32.34,0.109,-0.7,0.869,0,0.13,-0.73,0.821,0,0.244,-0.52,0.53,0,0.27,-1.22,1,0,0.388,,,,0.12,-0.72,0.863,0,0.228,,,
63831,20090724,-89.07,32.34,0.109,-0.71,0.887,0,0.125,-0.78,0.964,0,0.236,-0.61,0.661,0.006,0.267,-1.28,1,0,0.375,,,,0.117,-0.75,1,0,0.223,,,
63831,20090725,-89.07,32.34,0.108,-0.72,0.887,0,0.122,-0.82,1,0,0.229,-0.71,0.792,0.012,0.263,-1.33,1,0,0.363,,,,0.115,-0.77,1,0,0.217,,,
63831,20090726,-89.07,32.34,0.107,-0.72,0.887,0,0.118,-0.85,1,0,0.223,-0.78,0.917,0.018,0.259,-1.37,1,0,0.353,,,,0.113,-0.78,1,0,0.212,,,
63831,20090727,-89.07,32.34,0.107,-0.71,0.887,0,0.116,-0.87,1,0,0.216,-0.87,0.952,0.024,0.256,-1.41,1,0,0.34,,,,0.112,-0.79,1,0,0.207,,,
63831,20090728,-89.07,32.34,0.107,-0.71,0.887,0,0.115,-0.87,1,0,0.21,-0.96,0.946,0.03,0.252,-1.44,1,0,0.333,,,,0.111,-0.79,1,0,0.203,,,
63831,20090729,-89.07,32.34,0.107,-0.7,0.887,0,0.114,-0.87,1,0,0.203,-1.06,0.946,0.03,0.249,-1.46,1,0,0.321,,,,0.111,-0.79,1,0,0.199,,,
63831,20090730,-89.07,32.34,0.114,-0.64,0.821,0,0.125,-0.76,0.887,0,0.204,-1.04,0.935,0.036,0.247,-1.46,1,0,0.316,,,,0.119,-0.7,0.881,0,0.201,,,
63831,20090731,-89.07,32.34,0.119,-0.6,0.732,0,0.134,-0.67,0.744,0,0.208,-0.99,0.94,0.036,0.247,-1.45,1,0,0.316,,,,0.127,-0.64,0.738,0,0.205,,,
63831,20090801,-89.07,32.34,0.128,-0.52,0.589,0,0.146,-0.56,0.601,0,0.213,-0.92,0.923,0.036,0.247,-1.44,1,0,0.316,,,,0.137,-0.55,0.595,0,0.21,,,
63831,20090802,-89.07,32.34,0.143,-0.41,0.446,0,0.162,-0.41,0.458,0.024,0.219,-0.84,0.798,0.03,0.247,-1.43,1,0,0.316,,,,0.152,-0.42,0.452,0,0.217,,,
63831,20090803,-89.07,32.34,0.159,-0.28,0.304,0,0.179,-0.25,0.315,0.065,0.227,-0.73,0.661,0.024,0.248,-1.42,1,0,0.319,,,,0.169,-0.27,0.31,0,0.226,,,
63831,20090804,-89.07,32.34,0.176,-0.14,0.161,0,0.197,-0.08,0.173,0.065,0.235,-0.61,0.524,0.018,0.248,-1.42,1,0,0.316,,,,0.187,-0.12,0.167,0,0.234,,,
63831,20090805,-89.07,32.34,0.192,-0.01,0.018,0,0.214,0.08,0.03,0.065,0.246,-0.45,0.381,0.03,0.249,-1.41,1,0,0.317,,,,0.203,0.04,0.024,0,0.244,,,
63831,20090806,-89.07,32.34,0.189,-0.03,0,0,0.215,0.09,0,0.065,0.251,-0.38,0.268,0.03,0.249,-1.41,1,0,0.319,,,,0.202,0.03,0,0,0.245,,,
63831,20090807,-89.07,32.34,0.186,-0.05,0,0,0.211,0.06,0,0.065,0.252,-0.36,0.22,0.03,0.251,-1.41,0.994,0,0.32,,,,0.198,0.01,0,0,0.244,,,
63831,20090808,-89.07,32.34,0.178,-0.1,0.065,0,0.204,0,0,0.065,0.251,-0.37,0.25,0.024,0.252,-1.41,0.994,0,0.32,,,,0.191,-0.05,0,0,0.241,,,
63831,20090809,-89.07,32.34,0.165,-0.2,0.208,0,0.192,-0.11,0.071,0.042,0.248,-0.41,0.387,0.03,0.252,-1.42,0.994,0,0.319,,,,0.179,-0.15,0.119,0,0.235,,,
63831,20090810,-89.07,32.34,0.16,-0.23,0.238,0,0.186,-0.16,0.101,0,0.249,-0.42,0.446,0.036,0.252,-1.44,0.994,0,0.321,,,,0.173,-0.19,0.143,0,0.234,,,
63831,20090811,-89.07,32.34,0.158,-0.25,0.238,0,0.183,-0.2,0.101,0,0.248,-0.43,0.506,0.042,0.253,-1.44,0.988,0,0.321,,,,0.17,-0.22,0.143,0,0.233,,,
63831,20090812,-89.07,32.34,0.157,-0.26,0.238,0,0.181,-0.22,0.101,0,0.248,-0.44,0.542,0.036,0.253,-1.46,0.988,0,0.322,,,,0.169,-0.24,0.143,0,0.232,,,
63831,20090813,-89.07,32.34,0.159,-0.25,0.238,0,0.183,-0.21,0.101,0,0.25,-0.42,0.524,0.048,0.252,-1.48,0.988,0,0.323,,,,0.171,-0.23,0.143,0,0.233,,,
63831,20090814,-89.07,32.34,0.16,-0.25,0.238,0,0.185,-0.2,0.101,0,0.252,-0.41,0.494,0.054,0.252,-1.5,0.988,0,0.322,,,,0.172,-0.23,0.143,0,0.234,,,
63831,20090815,-89.07,32.34,0.162,-0.24,0.173,0,0.186,-0.2,0.101,0,0.254,-0.38,0.482,0.06,0.251,-1.52,0.988,0,0.322,,,,0.174,-0.22,0.143,0,0.235,,,
63831,20090816,-89.07,32.34,0.166,-0.22,0.048,0,0.188,-0.19,0.107,0,0.255,-0.36,0.482,0.054,0.253,-1.51,0.982,0,0.322,,,,0.177,-0.2,0.065,0,0.237,,,
63831,20090817,-89.07,32.34,0.162,-0.25,0.042,0,0.184,-0.23,0.214,0,0.254,-0.39,0.554,0.048,0.254,-1.5,0.976,0,0.32,,,,0.173,-0.25,0.125,0,0.235,,,
63831,20090818,-89.07,32.34,0.155,-0.3,0.167,0,0.178,-0.29,0.357,0,0.253,-0.41,0.631,0.042,0.253,-1.51,0.982,0,0.322,,,,0.167,-0.3,0.268,0,0.232,,,
63831,20090819,-89.07,32.34,0.147,-0.36,0.298,0,0.17,-0.36,0.5,0,0.252,-0.43,0.714,0.048,0.252,-1.51,0.982,0,0.321,,,,0.159,-0.37,0.411,0,0.228,,,
63831,20090820,-89.07,32.34,0.139,-0.43,0.44,0,0.16,-0.45,0.643,0,0.247,-0.49,0.845,0.03,0.253,-1.49,0.982,0,0.32,,,,0.149,-0.44,0.554,0,0.224,,,
63831,20090821,-89.07,32.34,0.133,-0.47,0.571,0,0.152,-0.52,0.786,0,0.244,-0.53,0.923,0.018,0.252,-1.48,0.988,0,0.322,,,,0.143,-0.5,0.696,0,0.221,,,
63831,20090822,-89.07,32.34,0.133,-0.48,0.637,0,0.148,-0.56,0.929,0,0.242,-0.55,0.935,0.012,0.252,-1.46,0.988,0,0.323,,,,0.141,-0.52,0.81,0,0.22,,,
63831,20090823,-89.07,32.34,0.135,-0.47,0.69,0,0.148,-0.57,0.994,0,0.241,-0.55,0.94,0.012,0.251,-1.46,0.994,0,0.325,,,,0.142,-0.52,0.875,0,0.22,,,
63831,20090824,-89.07,32.34,0.135,-0.48,0.804,0,0.146,-0.58,1,0,0.24,-0.56,0.952,0.012,0.25,-1.46,1,0,0.327,,,,0.141,-0.53,0.935,0,0.22,,,
63831,20090825,-89.07,32.34,0.134,-0.49,0.821,0,0.144,-0.6,1,0,0.238,-0.57,0.958,0.012,0.25,-1.46,1,0,0.326,,,,0.139,-0.55,0.935,0,0.218,,,
63831,20090826,-89.07,32.34,0.133,-0.51,0.833,0,0.142,-0.62,1,0,0.234,-0.61,0.982,0,0.25,-1.46,1,0,0.326,,,,0.138,-0.56,0.935,0,0.217,,,
63831,20090827,-89.07,32.34,0.132,-0.52,0.833,0,0.14,-0.65,1,0,0.232,-0.62,0.994,0,0.249,-1.47,1,0,0.326,,,,0.136,-0.58,0.935,0,0.216,,,
63831,20090828,-89.07,32.34,0.127,-0.55,0.845,0,0.136,-0.68,1,0,0.229,-0.64,1,0,0.249,-1.48,1,0,0.323,,,,0.132,-0.61,0.935,0,0.213,,,
63831,20090829,-89.07,32.34,0.118,-0.62,0.923,0,0.13,-0.72,1,0,0.224,-0.68,1,0,0.249,-1.48,1,0,0.322,,,,0.124,-0.67,0.964,0,0.209,,,
63831,20090830,-89.07,32.34,0.106,-0.7,0.994,0,0.121,-0.8,1,0,0.219,-0.73,1,0,0.249,-1.49,1,0,0.32,,,,0.114,-0.75,1,0,0.203,,,
63831,20090831,-89.07,32.34,0.109,-0.66,0.893,0,0.125,-0.75,0.893,0,0.219,-0.7,0.905,0,0.249,-1.49,1,0,0.319,,,,0.117,-0.71,0.893,0,0.204,,,
63831,20090901,-89.07,32.34,0.115,-0.6,0.75,0,0.133,-0.66,0.75,0,0.222,-0.65,0.762,0,0.249,-1.49,1,0,0.317,,,,0.124,-0.63,0.75,0,0.207,,,
63831,20090902,-89.07,32.34,0.121,-0.53,0.607,0,0.139,-0.58,0.607,0,0.225,-0.59,0.619,0,0.249,-1.48,1,0,0.316,,,,0.13,-0.56,0.607,0,0.21,,,
63831,20090903,-89.07,32.34,0.127,-0.46,0.464,0,0.146,-0.49,0.464,0,0.228,-0.52,0.476,0,0.248,-1.47,1,0,0.318,,,,0.137,-0.48,0.464,0,0.214,,,
63831,20090904,-89.07,32.34,0.134,-0.38,0.321,0,0.154,-0.39,0.321,0,0.232,-0.45,0.333,0,0.248,-1.45,1,0,0.318,,,,0.144,-0.39,0.321,0,0.217,,,
63831,20090905,-89.07,32.34,0.141,-0.3,0.179,0,0.162,-0.29,0.179,0,0.236,-0.36,0.19,0,0.248,-1.42,1,0,0.32,,,,0.151,-0.3,0.179,0,0.221,,,
63831,20090906,-89.07,32.34,0.149,-0.21,0.036,0,0.169,-0.2,0.036,0,0.241,-0.28,0.048,0,0.248,-1.39,1,0,0.321,,,,0.159,-0.2,0.036,0,0.225,,,
63831,20090907,-89.07,32.34,0.143,-0.23,0,0,0.163,-0.22,0,0,0.24,-0.25,0,0,0.248,-1.35,1,0,0.321,,,,0.153,-0.22,0,0,0.223,,,
63831,20090908,-89.07,32.34,0.135,-0.27,0.083,0,0.154,-0.27,0.101,0,0.237,-0.25,0,0,0.248,-1.31,1,0,0.322,,,,0.144,-0.26,0.077,0,0.219,,,
63831,20090909,-89.07,32.34,0.127,-0.29,0.202,0,0.146,-0.31,0.244,0,0.234,-0.24,0,0,0.248,-1.25,1,0,0.322,,,,0.137,-0.3,0.202,0,0.215,,,
63831,20090910,-89.07,32.34,0.119,-0.34,0.345,0,0.137,-0.35,0.387,0,0.229,-0.25,0,0,0.248,-1.2,1,0,0.322,,,,0.128,-0.34,0.345,0,0.211,,,
63831,20090911,-89.07,32.34,0.119,-0.31,0.381,0.012,0.135,-0.35,0.435,0,0.228,-0.24,0,0,0.248,-1.16,1,0,0.323,,,,0.127,-0.33,0.387,0,0.211,,,
63831,20090912,-89.07,32.34,0.125,-0.25,0.381,0.012,0.138,-0.3,0.435,0,0.229,-0.21,0,0,0.248,-1.12,1,0,0.322,,,,0.132,-0.27,0.387,0,0.212,,,
63831,20090913,-89.07,32.34,0.13,-0.19,0.381,0.012,0.142,-0.25,0.435,0,0.23,-0.18,0,0,0.248,-1.08,1,0,0.322,,,,0.136,-0.22,0.387,0,0.214,,,
63831,20090914,-89.07,32.34,0.143,-0.08,0.381,0.113,0.155,-0.14,0.435,0.119,0.233,-0.14,0,0,0.248,-1.06,1,0,0.321,,,,0.149,-0.11,0.387,0.125,0.22,,,
63831,20090915,-89.07,32.34,0.157,0.03,0.298,0.173,0.171,0,0.333,0.262,0.237,-0.1,0,0,0.248,-1.05,1,0,0.32,,,,0.164,0.02,0.31,0.262,0.227,,,
63831,20090916,-89.07,32.34,0.177,0.17,0.179,0.256,0.191,0.16,0.19,0.405,0.244,-0.04,0,0,0.255,-1,0.964,0,0.321,,,,0.184,0.17,0.185,0.381,0.238,,,
63831,20090917,-89.07,32.34,0.207,0.38,0.036,0.399,0.218,0.36,0.048,0.548,0.258,0.06,0,0.077,0.278,-0.85,0.887,0.071,0.33,,,,0.212,0.38,0.042,0.524,0.258,,,
63831,20090918,-89.07,32.34,0.228,0.53,0,0.53,0.239,0.52,0,0.69,0.27,0.14,0,0.22,0.31,-0.64,0.744,0.179,0.351,,,,0.234,0.53,0,0.667,0.28,,,
63831,20090919,-89.07,32.34,0.247,0.66,0,0.673,0.257,0.66,0,0.833,0.283,0.23,0,0.363,0.347,-0.4,0.601,0.315,0.372,,,,0.252,0.67,0,0.81,0.301,,,
63831,20090920,-89.07,32.34,0.267,0.79,0,0.815,0.275,0.78,0,0.976,0.294,0.3,0,0.506,0.37,-0.24,0.458,0.357,0.391,,,,0.271,0.79,0,0.952,0.319,,,
63831,20090921,-89.07,32.34,0.278,0.86,0,0.857,0.283,0.85,0,1,0.303,0.35,0,0.607,0.387,-0.13,0.315,0.363,0.412,,,,0.281,0.86,0,0.97,0.333,,,
63831,20090922,-89.07,32.34,0.29,0.93,0,0.94,0.291,0.9,0,1,0.311,0.4,0,0.667,0.4,-0.04,0.226,0.363,0.433,,,,0.29,0.92,0,0.976,0.345,,,
63831,20090923,-89.07,32.34,0.3,1,0,1,0.297,0.95,0,1,0.319,0.45,0,0.756,0.419,0.08,0.167,0.446,0.452,,,,0.299,0.98,0,1,0.357,,,
63831,20090924,-89.07,32.34,0.303,1.03,0,1,0.3,0.97,0,1,0.324,0.47,0,0.821,0.432,0.17,0.101,0.506,0.462,,,,0.302,1.01,0,1,0.364,,,
63831,20090925,-89.07,32.34,0.304,1.05,0,1,0.301,0.97,0,1,0.324,0.47,0,0.821,0.424,0.11,0.107,0.452,0.46,,,,0.303,1.02,0,1,0.363,,,
63831,20090926,-89.07,32.34,0.303,1.05,0,1,0.299,0.96,0,1,0.321,0.44,0,0.786,0.402,-0.02,0.107,0.321,0.459,,,,0.301,1.01,0,1,0.357,,,
63831,20090927,-89.07,32.34,0.304,1.06,0,1,0.299,0.95,0,1,0.32,0.44,0,0.768,0.392,-0.08,0.107,0.28,0.459,,,,0.302,1.02,0,1,0.355,,,
63831,20090928,-89.07,32.34,0.304,1.06,0,1,0.299,0.94,0,1,0.32,0.43,0,0.768,0.388,-0.1,0.131,0.274,0.459,,,,0.302,1.02,0,1,0.354,,,
63831,20090929,-89.07,32.34,0.302,1.04,0,1,0.299,0.92,0,1,0.319,0.43,0,0.762,0.388,-0.09,0.101,0.28,0.459,,,,0.3,1,0,1,0.353,,,
63831,20090930,-89.07,32.34,0.294,0.98,0,1,0.295,0.88,0,1,0.315,0.41,0,0.69,0.373,-0.18,0.125,0.196,0.458,,,,0.295,0.95,0,1,0.347,,,
63831,20091001,-89.07,32.34,0.284,0.9,0,0.994,0.289,0.81,0,1,0.31,0.39,0,0.56,0.35,-0.32,0.208,0.071,0.456,,,,0.286,0.87,0,1,0.338,,,
63831,20091002,-89.07,32.34,0.275,0.82,0,0.994,0.283,0.75,0,1,0.307,0.37,0,0.44,0.341,-0.37,0.28,0.03,0.456,,,,0.279,0.8,0,1,0.332,,,
63831,20091003,-89.07,32.34,0.275,0.8,0,0.994,0.283,0.73,0,1,0.307,0.38,0,0.476,0.357,-0.26,0.28,0.113,0.457,,,,0.279,0.78,0,1,0.336,,,
63831,20091004,-89.07,32.34,0.272,0.76,0,0.994,0.282,0.7,0,1,0.307,0.38,0,0.494,0.359,-0.24,0.28,0.119,0.458,,,,0.277,0.74,0,1,0.336,,,
63831,20091005,-89.07,32.34,0.276,0.76,0,0.994,0.284,0.7,0,1,0.309,0.39,0,0.536,0.372,-0.15,0.256,0.196,0.458,,,,0.28,0.73,0,1,0.34,,,
63831,20091006,-89.07,32.34,0.28,0.76,0,0.994,0.286,0.71,0,1,0.311,0.4,0,0.625,0.39,-0.01,0.232,0.304,0.461,,,,0.283,0.74,0,1,0.346,,,
63831,20091007,-89.07,32.34,0.285,0.79,0,0.994,0.289,0.72,0,1,0.313,0.41,0,0.75,0.395,0.03,0.161,0.315,0.462,,,,0.287,0.76,0,1,0.349,,,
63831,20091008,-89.07,32.34,0.293,0.83,0,1,0.294,0.75,0,1,0.315,0.42,0,0.881,0.397,0.05,0.077,0.315,0.465,,,,0.293,0.79,0,1,0.353,,,
63831,20091009,-89.07,32.34,0.299,0.87,0,1,0.298,0.78,0,1,0.317,0.42,0,1,0.394,0.05,0,0.31,0.466,,,,0.299,0.83,0,1,0.355,,,
63831,20091010,-89.07,32.34,0.298,0.87,0,1,0.298,0.78,0,1,0.316,0.41,0,1,0.378,-0.04,0.012,0.232,0.467,,,,0.298,0.83,0,1,0.352,,,
63831,20091011,-89.07,32.34,0.3,0.89,0,1,0.3,0.8,0,1,0.317,0.41,0,1,0.376,-0.05,0.012,0.238,0.466,,,,0.3,0.85,0,1,0.352,,,
63831,20091012,-89.07,32.34,0.298,0.88,0,1,0.299,0.8,0,1,0.315,0.39,0,1,0.367,-0.1,0.018,0.19,0.465,,,,0.298,0.85,0,1,0.349,,,
63831,20091013,-89.07,32.34,0.301,0.91,0,1,0.301,0.82,0,1,0.317,0.4,0,1,0.364,-0.11,0.024,0.179,0.464,,,,0.301,0.88,0,1,0.35,,,
63831,20091014,-89.07,32.34,0.304,0.94,0,1,0.304,0.84,0,1,0.319,0.39,0,1,0.38,0,0.024,0.298,0.464,,,,0.304,0.91,0,1,0.354,,,
63831,20091015,-89.07,32.34,0.307,0.97,0,1,0.307,0.87,0,1,0.322,0.39,0,1,0.397,0.12,0.024,0.429,0.464,,,,0.307,0.95,0,1,0.36,,,
63831,20091016,-89.07,32.34,0.31,1,0,1,0.31,0.9,0,1,0.323,0.38,0,1,0.402,0.16,0.024,0.435,0.465,,,,0.31,0.97,0,1,0.362,,,
63831,20091017,-89.07,32.34,0.311,1.02,0,1,0.312,0.93,0,1,0.324,0.36,0,1,0.404,0.17,0.012,0.44,0.464,,,,0.312,1,0,1,0.363,,,
63831,20091018,-89.07,32.34,0.311,1.02,0,1,0.312,0.94,0,1,0.324,0.33,0,1,0.404,0.17,0.054,0.44,0.463,,,,0.312,1.01,0,1,0.363,,,
63831,20091019,-89.07,32.34,0.311,1.02,0,1,0.312,0.95,0,1,0.324,0.31,0,1,0.4,0.15,0.149,0.411,0.465,,,,0.311,1.01,0,1,0.362,,,
63831,20091020,-89.07,32.34,0.305,0.97,0,1,0.309,0.94,0,1,0.319,0.26,0,0.964,0.383,0.03,0.274,0.31,0.466,,,,0.307,0.97,0,1,0.356,,,
63831,20091021,-89.07,32.34,0.298,0.92,0,1,0.305,0.92,0,1,0.316,0.23,0,0.839,0.362,-0.11,0.405,0.185,0.465,,,,0.301,0.93,0,1,0.349,,,
63831,20091022,-89.07,32.34,0.29,0.85,0,1,0.299,0.88,0,1,0.312,0.19,0,0.696,0.342,-0.25,0.542,0.054,0.461,,,,0.294,0.86,0,1,0.341,,,
63831,20091023,-89.07,32.34,0.284,0.8,0,1,0.295,0.84,0,1,0.31,0.16,0,0.583,0.34,-0.27,0.637,0.077,0.461,,,,0.29,0.81,0,1,0.338,,,
63831,20091024,-89.07,32.34,0.283,0.76,0,1,0.294,0.82,0,1,0.311,0.17,0,0.583,0.351,-0.19,0.643,0.131,0.46,,,,0.288,0.77,0,1,0.34,,,
63831,20091025,-89.07,32.34,0.281,0.72,0,1,0.292,0.79,0,1,0.311,0.16,0,0.506,0.352,-0.19,0.607,0.131,0.463,,,,0.287,0.74,0,1,0.34,,,